Date String (YYYY-MM-DD hh:mm:ss) UTC,Instrument flags,absolute air pressure of the measurement (hPa),sample flow rate (lpm),inlet stack bypass flow (lpm),air temperature of the measurement (°C),ambient temperature measured by the external sensor (°C),aerosol sample conditioner tube jacket temperature (°C),OPC LED temperature (°C),internal box temperature (°C),relative humidity of the measurement (%),span deviation,mass concentration of particles derived from Lorenz-Mie calculation of OPC scattering (μg/m³),mass concentration of particles derived from Lorenz-Mie calculation of OPC scattering (μg/m³),mass concentration of particles derived from Lorenz-Mie calculation of OPC scattering (μg/m³)
DateTimeUTC,F1_M11,P_M11,Q1_M11,Q2_M11,T1_M11,T2_M11,T3_M11,T4_M11,T5_M11,U1_M11,ZSPAN_M11,X0_M11,X2_M11,X1_M11
2024-01-19 20:00:00,SystemResetWarning,0833.8,5.01,000.00,019.8,019.2,000.0,028.0,021.1,11.7,0002.3,0015.28,0009.07,0008.33
2024-01-19 20:01:00,SystemResetWarning,0833.8,5.00,000.00,019.8,019.2,000.0,028.0,021.2,11.8,0001.9,0015.37,0009.06,0008.32
2024-01-19 20:02:00,SystemResetWarning,0833.7,5.00,000.00,019.8,019.2,000.0,028.0,021.2,11.9,0001.8,0014.85,0009.01,0008.29
2024-01-19 20:03:00,SystemResetWarning,0833.7,5.00,000.00,019.8,019.3,000.0,028.0,021.2,11.9,0001.5,0014.49,0009.01,0008.26
2024-01-19 20:04:00,SystemResetWarning,0833.7,5.00,000.00,019.8,019.3,000.0,028.0,021.2,11.7,0001.2,0014.39,0009.00,0008.23
2024-01-19 20:05:00,SystemResetWarning,0833.7,5.00,000.00,019.8,019.3,000.0,028.0,021.2,11.8,0001.6,0013.86,0008.97,0008.21
2024-01-19 20:06:00,SystemResetWarning,0833.8,5.00,000.00,019.8,019.3,000.0,028.0,021.2,11.8,0001.9,0013.79,0008.96,0008.18
2024-01-19 20:07:00,SystemResetWarning,0833.8,5.00,000.00,019.9,019.3,000.0,028.1,021.2,11.9,0001.5,0013.74,0008.96,0008.15
2024-01-19 20:08:00,SystemResetWarning,0833.8,5.00,000.00,019.9,019.3,000.0,028.1,021.2,11.9,0001.6,0013.65,0008.88,0008.08
2024-01-19 20:09:00,SystemResetWarning,0833.7,5.00,000.00,019.9,019.3,000.0,028.1,021.3,11.9,0001.8,0013.57,0008.83,0008.04
2024-01-19 20:10:00,SystemResetWarning,0833.7,5.00,000.00,019.9,019.3,000.0,028.1,021.3,11.7,0002.0,0013.77,0008.81,0008.00
2024-01-19 20:11:00,SystemResetWarning,0833.7,5.00,000.00,019.9,019.3,000.0,028.1,021.3,11.8,0001.8,0013.01,0008.78,0007.99
2024-01-19 20:12:00,SystemResetWarning,0833.7,5.00,000.00,019.9,019.4,000.0,028.1,021.3,11.8,0001.9,0012.70,0008.72,0007.98
2024-01-19 20:13:00,SystemResetWarning,0833.6,5.00,000.00,019.9,019.4,000.0,028.1,021.3,12.0,0001.7,0012.74,0008.75,0007.98
2024-01-19 20:14:00,SystemResetWarning,0833.5,5.00,000.00,019.9,019.4,000.0,028.1,021.3,12.0,0001.5,0012.60,0008.70,0007.97
2024-01-19 20:15:00,SystemResetWarning,0833.5,5.00,000.00,020.0,019.4,000.0,028.1,021.3,12.0,0001.4,0012.53,0008.64,0007.94
2024-01-19 20:16:00,SystemResetWarning,0833.5,4.99,000.00,020.0,019.4,000.0,028.2,021.3,11.9,0001.4,0012.65,0008.61,0007.92
2024-01-19 20:17:00,SystemResetWarning,0833.6,4.99,000.00,020.0,019.4,000.0,028.2,021.3,12.0,0001.3,0012.93,0008.58,0007.88
2024-01-19 20:18:00,SystemResetWarning,0833.6,4.99,000.00,020.0,019.4,000.0,028.2,021.3,11.8,0001.5,0013.31,0008.52,0007.84
2024-01-19 20:19:00,SystemResetWarning,0833.5,5.00,000.00,020.0,019.4,000.0,028.2,021.3,11.9,0001.8,0013.64,0008.52,0007.84
2024-01-19 20:20:00,SystemResetWarning,0833.4,5.00,000.00,020.0,019.4,000.0,028.2,021.4,11.9,0001.8,0013.62,0008.51,0007.81
2024-01-19 20:21:00,SystemResetWarning,0833.4,5.00,000.00,020.0,019.4,000.0,028.2,021.3,12.0,0001.6,0012.82,0008.47,0007.80
2024-01-19 20:22:00,SystemResetWarning,0833.4,5.00,000.00,020.0,019.4,000.0,028.2,021.4,12.1,0001.6,0012.60,0008.51,0007.79
2024-01-19 20:23:00,SystemResetWarning,0833.4,5.01,000.00,020.0,019.5,000.0,028.2,021.4,12.1,0001.8,0012.59,0008.50,0007.78
2024-01-19 20:24:00,SystemResetWarning,0833.4,5.00,000.00,020.1,019.5,000.0,028.2,021.4,12.1,0001.7,0012.64,0008.47,0007.76
2024-01-19 20:25:00,SystemResetWarning,0833.4,5.00,000.00,020.1,019.5,000.0,028.3,021.4,12.1,0002.2,0012.97,0008.45,0007.73
2024-01-19 20:26:00,SystemResetWarning,0833.4,5.00,000.00,020.1,019.5,000.0,028.3,021.4,12.1,0002.5,0013.01,0008.44,0007.70
2024-01-19 20:27:00,SystemResetWarning,0833.4,5.00,000.00,020.1,019.5,000.0,028.3,021.5,12.0,0002.4,0012.98,0008.43,0007.69
2024-01-19 20:28:00,SystemResetWarning,0833.3,5.00,000.00,020.1,019.5,000.0,028.3,021.5,11.9,0002.3,0012.50,0008.37,0007.69
2024-01-19 20:29:00,SystemResetWarning,0833.3,5.00,000.00,020.1,019.6,000.0,028.3,021.5,11.9,0002.2,0012.09,0008.36,0007.67
2024-01-19 20:30:00,SystemResetWarning,0833.2,4.99,000.00,020.1,019.6,000.0,028.3,021.5,11.9,0002.3,0011.62,0008.35,0007.67
2024-01-19 20:31:00,SystemResetWarning,0833.3,5.00,000.00,020.2,019.6,000.0,028.3,021.6,11.9,0002.0,0011.85,0008.35,0007.66
2024-01-19 20:32:00,SystemResetWarning,0833.3,5.00,000.00,020.2,019.6,000.0,028.3,021.6,12.0,0001.9,0012.04,0008.33,0007.65
2024-01-19 20:33:00,SystemResetWarning,0833.2,5.00,000.00,020.2,019.6,000.0,028.4,021.6,12.0,0001.9,0012.01,0008.30,0007.63
2024-01-19 20:34:00,SystemResetWarning,0833.2,5.01,000.00,020.2,019.6,000.0,028.4,021.6,12.0,0001.5,0012.16,0008.30,0007.62
2024-01-19 20:35:00,SystemResetWarning,0833.2,5.01,000.00,020.2,019.7,000.0,028.4,021.6,12.1,0001.8,0012.49,0008.29,0007.60
2024-01-19 20:36:00,SystemResetWarning,0833.2,5.01,000.00,020.2,019.7,000.0,028.4,021.6,12.0,0001.0,0012.16,0008.25,0007.57
2024-01-19 20:37:00,SystemResetWarning,0833.2,5.01,000.00,020.2,019.7,000.0,028.4,021.6,12.1,0000.4,0012.22,0008.20,0007.53
2024-01-19 20:38:00,SystemResetWarning,0833.2,5.00,000.00,020.2,019.7,000.0,028.4,021.6,12.0,0000.3,0012.30,0008.14,0007.49
2024-01-19 20:39:00,SystemResetWarning,0833.2,4.99,000.00,020.2,019.7,000.0,028.4,021.6,11.9,0000.2,0012.37,0008.13,0007.45
2024-01-19 20:40:00,SystemResetWarning,0833.2,5.00,000.00,020.2,019.7,000.0,028.4,021.5,11.9,-000.1,0012.26,0008.06,0007.42
2024-01-19 20:41:00,SystemResetWarning,0833.2,4.99,000.00,020.2,019.7,000.0,028.5,021.6,11.9,-000.5,0012.16,0008.01,0007.39
2024-01-19 20:42:00,SystemResetWarning,0833.2,5.00,000.00,020.3,019.7,000.0,028.5,021.6,11.9,-000.0,0011.85,0007.98,0007.37
2024-01-19 20:43:00,SystemResetWarning,0833.2,5.01,000.00,020.3,019.7,000.0,028.5,021.6,12.0,-000.1,0011.70,0007.97,0007.35
2024-01-19 20:44:00,SystemResetWarning,0833.2,5.01,000.00,020.3,019.7,000.0,028.5,021.6,12.0,-000.3,0011.66,0007.95,0007.33
2024-01-19 20:45:00,SystemResetWarning,0833.1,5.01,000.00,020.3,019.7,000.0,028.5,021.6,12.2,0000.1,0011.40,0007.87,0007.29
2024-01-19 20:46:00,SystemResetWarning,0833.2,5.00,000.00,020.3,019.7,000.0,028.5,021.6,12.0,-000.0,0011.04,0007.86,0007.27
2024-01-19 20:47:00,SystemResetWarning,0833.2,5.00,000.00,020.3,019.7,000.0,028.5,021.6,11.9,0000.9,0011.49,0007.85,0007.26
2024-01-19 20:48:00,SystemResetWarning,0833.1,5.00,000.00,020.3,019.7,000.0,028.5,021.6,12.1,0001.4,0011.59,0007.84,0007.26
2024-01-19 20:49:00,SystemResetWarning,0833.2,5.00,000.00,020.3,019.7,000.0,028.5,021.6,12.2,0001.8,0011.84,0007.87,0007.26
2024-01-19 20:50:00,SystemResetWarning,0833.2,4.99,000.00,020.3,019.7,000.0,028.5,021.7,12.0,0002.1,0011.85,0007.88,0007.25
2024-01-19 20:51:00,SystemResetWarning,0833.2,5.00,000.00,020.3,019.8,000.0,028.6,021.7,11.9,0002.2,0011.86,0007.89,0007.25
2024-01-19 20:52:00,SystemResetWarning,0833.2,5.00,000.00,020.3,019.8,000.0,028.6,021.7,12.1,0001.8,0011.86,0007.88,0007.23
2024-01-19 20:53:00,SystemResetWarning,0833.0,5.01,000.00,020.3,019.8,000.0,028.6,021.6,12.3,0001.6,0011.79,0007.84,0007.21
2024-01-19 20:54:00,SystemResetWarning,0833.0,5.01,000.00,020.3,019.7,000.0,028.6,021.6,12.2,0001.7,0011.88,0007.83,0007.20
2024-01-19 20:55:00,SystemResetWarning,0833.3,5.00,000.00,020.3,019.7,000.0,028.6,021.6,11.9,0001.7,0012.02,0007.81,0007.18
2024-01-19 20:56:00,SystemResetWarning,0833.0,5.00,000.00,020.4,019.7,000.0,028.6,021.6,11.9,0001.4,0012.08,0007.81,0007.16
2024-01-19 20:57:00,SystemResetWarning,0833.2,5.00,000.00,020.4,019.7,000.0,028.6,021.6,12.1,0000.7,0012.16,0007.79,0007.13
2024-01-19 20:58:00,SystemResetWarning,0833.1,5.00,000.00,020.4,019.7,000.0,028.6,021.6,12.1,0000.8,0011.76,0007.78,0007.12
2024-01-19 20:59:00,SystemResetWarning,0833.3,5.00,000.00,020.4,019.7,000.0,028.6,021.7,12.1,0001.1,0011.37,0007.77,0007.11
